カタログに戻る

STARLINK-5204

運用中通信VLEO
NORAD 54101·PAYLOAD·🇺🇸 United States

打ち上げ Oct 20, 2022 から Cape Canaveral Space Force Station

Loading…

次のパス (今後24時間)

TLE

最新Source: CelesTrak SupGP

元期: Sep 14, 2026, 21:10 UTC

1 54101C 22136BC  26257.88243056 -.00018629  00000+0 -59895-3 0  2576
2 54101  53.1589 176.9931 0001381  94.0545 140.6595 15.31717380    17

AllMySatでSTARLINK-5204をリアルタイム追跡

Download on the App Store